Location: Stamford Observatory
(41.1241°N, 73.5498°W)
Time: 19:48:44
(UTC-04:00)

Daily predictions for brighter satellites

Satellite Brightness Start Highest point End
(mag) Time Altitude Azimuth Time Altitude Azimuth Time Altitude Azimuth
NOSS 3-2 (A) 3.5 18:55:14 10° SSW 19:01:17 84° ESE 19:07:54 10° NE
Meteor 1-22 Rocket 4.1 18:57:24 10° S 19:02:42 73° E 19:07:59 10° NNE
Cosmos 1707 3.8 19:01:19 10° NNW 19:05:05 52° W 19:08:49 10° S
ATLAS CENTAUR R/B 3.3 19:01:39 10° NW 19:05:21 31° WSW 19:08:46 10° S
Cosmos 1603 4.3 19:01:43 10° S 19:06:52 36° ESE 19:12:03 10° NE
Meteor 1-24 Rocket 3.7 19:02:42 10° N 19:08:21 89° ENE 19:13:46 10° S
SAR-Lupe-1 4.3 19:06:41 10° SSE 19:10:07 48° ENE 19:13:34 10° N
Cosmos-2242 3.8 19:06:47 10° SSE 19:10:35 30° E 19:14:27 10° NNE
Cosmos 1437 3.9 19:09:02 10° NNW 19:12:13 49° W 19:15:23 10° S
OAO 3 Rocket 4.0 19:10:29 10° WSW 19:14:54 40° S 19:19:23 10° ESE
Cosmos 1452 Rocket 3.6 19:09:59 10° NNW 19:15:11 57° ENE 19:20:20 10° SSE
MSX 4.3 19:09:53 10° S 19:15:35 66° WSW 19:21:20 10° NNW
Cosmos 2034 Rocket 4.2 19:12:42 10° SSE 19:18:43 51° E 19:24:49 10° NNE
Cosmos 1464 Rocket 4.0 19:13:00 10° S 19:19:11 70° E 19:25:20 10° NNE
Cosmos 1470 4.3 19:18:29 10° SE 19:20:54 16° E 19:23:20 10° NE
In-Cosmos 22 4.3 19:15:20 10° N 19:21:04 60° ENE 19:26:42 10° SSE
Cosmos 2333 Rocket 4.5 19:19:00 10° WSW 19:23:45 26° NW 19:28:33 10° N
Spot 1 4.4 19:20:20 10° SE 19:24:50 49° ENE 19:29:07 10° N
ASTEX 1 4.5 19:21:09 10° NE 19:24:57 22° E 19:28:43 10° SE
CZ-4C R/B 4.1 19:23:13 10° W 19:27:54 28° NW 19:33:07 10° NNE
Cosmos 1674 4.0 19:25:48 10° NNE 19:28:52 22° ENE 19:31:20 13° ESE
CENTAUR R/B 3.2 19:25:11 10° SSE 19:30:13 29° ESE 19:35:44 10° NE
ATLAS CENTAUR R/B 3.6 19:27:23 10° SW 19:32:14 90° SE 19:48:09 10° NE
SJ-6B 2.9 19:28:43 10° SSE 19:32:42 89° W 19:36:48 10° NNW
Cosmos 1408 Rocket 3.4 19:29:08 10° N 19:33:31 81° E 19:37:48 10° S
Cosmos 1842 Rocket 4.4 19:31:01 10° SE 19:34:37 26° E 19:38:15 10° NNE
Cosmos 1420 Rocket 4.3 19:30:12 10° N 19:35:20 48° ENE 19:40:28 10° SE
Cosmos 724 4.3 19:30:28 10° SSW 19:36:22 77° ESE 19:42:27 10° NE
ATLAS 5 CENTAUR R/B 2.1 19:32:38 10° SW 19:37:23 71° NW 19:42:35 10° NNE
FengYun 1-2 T 4.4 19:34:56 10° SE 19:40:12 50° ENE 19:45:30 10° N
NOSS 3-2 (C) 3.9 19:34:55 10° SW 19:40:58 68° NW 19:47:38 10° NNE
ALOS 2.7 19:41:59 10° SE 19:46:18 39° ENE 19:50:38 10° N
Cosmos 1758 3.4 19:43:05 10° S 19:47:10 87° W 19:51:18 10° N
Helios 1A 2.9 19:46:15 10° SSE 19:50:25 68° ENE 19:54:38 10° N
Spot 2 Rocket 3.4 19:45:41 10° SSE 19:50:42 79° ENE 19:55:46 10° N
ISS -3.3 19:50:19 10° SW 19:53:31 59° SE 19:54:43 33° ENE
Cosmos 1048 Rocket 4.0 19:49:04 10° S 19:54:16 59° ESE 19:59:26 10° NNE
Cosmos 1544 3.0 19:53:01 10° S 19:56:45 81° E 20:00:30 10° N
Cosmos 1269 Rocket 3.9 19:51:58 10° S 19:57:13 74° ESE 20:02:30 10° NNE
METEOR-M 4.3 19:53:43 10° S 19:59:03 78° WSW 20:04:27 10° NNW
Resurs 1-3 3.5 19:55:40 10° SSE 20:00:02 76° ENE 20:04:26 10° N
SL-8 R/B 3.6 19:56:38 10° SW 20:01:26 83° SSE 20:04:21 24° ENE
Meteor 1-21 Rocket 4.2 19:56:10 10° N 20:01:44 84° W 20:07:16 10° S
SL-16 R/B 4.1 19:58:20 10° WSW 20:03:22 32° WNW 20:08:26 10° N
Cosmos 1743 Rocket 3.4 19:59:02 10° N 20:03:30 81° E 20:07:54 10° S
Resurs 01 Rocket 1.8 20:01:16 10° S 20:05:42 73° WSW 20:10:09 10° NNW
Cosmos 1174 4.2 20:02:15 10° S 20:06:54 45° ESE 20:08:09 34° ENE
HJ-1C 4.2 20:06:16 10° S 20:09:32 51° W 20:12:50 10° NNW
Cosmos 158 Rocket 3.9 20:08:18 10° S 20:13:00 50° ESE 20:17:43 10° NNE
USA 215 3.2 20:06:43 10° NE 20:13:17 78° SE 20:19:49 10° SW
FENGYUN 3A 3.5 20:09:55 11° SSE 20:15:08 75° ENE 20:20:32 10° N
CZ-2D R/B 3.2 20:15:35 46° SE 20:16:31 62° ENE 20:20:22 10° N
Helios 1B rocket 3.4 20:19:34 10° N 20:23:33 49° WNW 20:27:31 10° SSW
Nadezhda 4 Rocket 4.2 20:18:00 10° NNW 20:24:15 72° W 20:30:24 10° S
Cosmos 2279 Rocket 4.4 20:25:11 37° E 20:25:18 37° E 20:30:54 10° NNE
Abrixas 3.4 20:24:17 10° W 20:26:59 46° NW 20:26:59 46° NW
H-2A R/B 2.6 20:28:07 60° SSE 20:28:48 87° ENE 20:32:41 10° N
GP-B 3.0 20:25:59 10° N 20:30:25 63° E 20:30:36 62° ESE
SeaSat 1 4.4 20:34:30 14° S 20:34:30 14° S 20:35:15 10° S
CZ-4B DEB 3.3 20:31:56 57° WSW 20:32:08 58° W 20:35:22 10° NNW
Cosmos 1092 Rocket 4.0 20:27:02 10° N 20:33:16 84° W 20:39:24 10° S
ERS-1 Rocket 3.8 20:35:35 34° NE 20:35:35 34° NE 20:39:17 10° N
GPS 2-04 Rocket1 4.1 20:34:41 10° WSW 20:36:40 25° SSW 20:36:40 25° SSW
Gbstr 26 Del rocket 3.2 20:34:07 10° SW 20:38:38 86° SE 20:39:48 54° ENE
Cosmos 1655 Rocket 4.0 20:33:21 10° N 20:39:29 56° E 20:40:32 49° ESE
Cosmos 1943 Rocket 2.7 20:34:34 10° N 20:39:37 39° NE 20:39:37 39° NE
Cosmos 2142 Rocket 4.4 20:34:36 10° S 20:40:58 81° E 20:47:24 10° N
Cosmos 2369 Rocket 2.1 20:37:56 10° NNW 20:43:38 88° WSW 20:45:20 48° SSE
Cosmos 1943 3.2 20:38:48 10° SSW 20:44:26 83° WNW 20:50:06 10° NNE
Cosmos 2026 Rocket 3.8 20:39:21 10° N 20:45:27 69° E 20:46:56 51° SE
Cosmos 1110 Rocket 4.0 20:40:52 10° NNW 20:46:09 63° ENE 20:46:09 63° ENE
Cosmos 1634 Rocket 4.0 20:42:36 10° S 20:48:52 83° W 20:55:07 10° N
Cosmos 2058 4.3 20:45:46 10° N 20:47:52 29° N 20:47:52 29° N
Cosmos 2151 3.3 20:48:31 10° N 20:52:06 61° NNW 20:52:06 61° NNW
Cosmos 2263 4.1 20:47:17 10° NNW 20:53:06 81° ENE 20:53:43 71° SE
Cosmos 1733 4.5 20:51:04 10° SSW 20:54:44 41° WNW 20:58:25 10° N
Cosmos 1470 4.5 20:53:14 10° SW 20:56:44 32° WNW 21:00:15 10° NNW
Cosmos 839 Rocket 4.2 20:54:34 10° NNW 21:02:07 78° WSW 21:03:48 53° S
Meteor 2-1 Rocket 4.4 21:16:32 68° N 21:16:32 68° N 21:21:40 10° N
Cosmos 1331 Rocket 4.4 21:12:59 10° NNW 21:17:26 61° NW 21:17:26 61° NW
CENTAUR R/B 3.2 21:14:27 10° SW 21:20:25 52° NW 21:27:10 10° NNE
Envisat 4.4 21:42:35 34° NW 21:42:35 34° NW 21:45:32 10° NNW
USA 215 4.4 21:53:08 26° NNE 21:55:57 38° NNW 22:01:51 10° W
Cosmos 1943 Rocket 4.3 22:18:38 10° NW 22:21:09 22° WNW 22:21:09 22° WNW
CZ-3A R/B 4.4 22:01:10 10° SW 22:27:53 75° WSW 22:27:53 75° WSW
